Miscellaneous Local Product
Issued by NWS Hastings, NE

Home | Current Version | Previous Version | Text Only | Print | Product List | Glossary Off
Versions: 1 2 3 4 5 6 7 8 9 10 11 12 13 14 15 16 17 18 19 20 21 22 23 24 25 26 27 28 29 30 31 32 33 34 35 36 37 38 39 40 41 42 43 44 45 46 47 48 49 50

311
AXUS43 KGID 050202
MISGRI

GID CWA HOURLY WEATHER ROUNDUP
NATIONAL WEATHER SERVICE HASTINGS NE
900 PM CDT WED MAY 04 2016

NOTE: "FAIR" INDICATES FEW OR NO CLOUDS BELOW 12,000 FEET WITH NO
SIGNIFICANT WEATHER AND/OR OBSTRUCTIONS TO VISIBILITY.

...SOUTH CENTRAL NEBRASKA...

CITY           SKY/WX    TMP DP  RH WIND       PRES   REMARKS
GRAND ISLAND   CLEAR     57  37  47 N7        30.05S
HASTINGS       CLEAR     61  35  37 N5        30.05S
KEARNEY        CLEAR     63  36  36 NE3       30.07S
ORD            CLEAR     56  38  50 CALM      30.04S
YORK           CLEAR     59  34  38 N3        30.04R
AURORA         CLEAR     58  32  38 NW7       30.04R
LEXINGTON      CLEAR     63  39  41 E3        30.06S
HOLDREGE       CLEAR     60  43  54 NE5       30.06S
HEBRON         CLEAR     62  33  33 N3        30.03S

...NEBRASKA PANHANDLE...

CITY           SKY/WX    TMP DP  RH WIND       PRES   REMARKS
CHADRON        CLEAR     62  46  55 SE10      30.02F
ALLIANCE       CLEAR     56  43  61 SE10      30.07S
SCOTTSBLUFF    CLEAR     64  42  44 SE10      30.06F
SIDNEY         CLEAR     56  45  66 SE8       30.11F

...WESTERN AND NORTH CENTRAL NEBRASKA...

CITY           SKY/WX    TMP DP  RH WIND       PRES   REMARKS
VALENTINE      CLEAR     62  41  46 E6        30.05F
AINSWORTH      CLEAR     60  40  48 E5        30.07S
ONEILL         CLEAR     63  37  37 N3        30.06R
BROKEN BOW     CLEAR     56  44  64 N3        30.06S
IMPERIAL       CLEAR     65  42  43 E6        30.08S
NORTH PLATTE   CLEAR     58  40  51 NE6       30.07R
MCCOOK         CLEAR     62  43  49 SE8       30.06S

...EASTERN NEBRASKA...

CITY           SKY/WX    TMP DP  RH WIND       PRES   REMARKS
NORFOLK        CLEAR     57  35  43 N6        30.03R
SO SIOUX CITY  CLEAR     56  41  57 NW7       30.00R
TEKAMAH        CLEAR     56  46  69 NW7       30.00R
COLUMBUS       CLEAR     59  30  33 NW7       30.04R
ALBION         CLEAR     55  37  49 CALM      30.05R
OMAHA EPPLEY   PTCLDY    59  41  51 NW3       29.99S
OFFUTT AFB     CLEAR     58  44  59 N5        29.99R
MILLARD        CLEAR     65  38  36 CALM      30.00R
LINCOLN        CLEAR     59  37  44 N5        30.02R
NEBRASKA CITY  CLEAR     60  36  40 N5        30.00S
BEATRICE       CLEAR     55  41  60 N6        30.01S
FALLS CITY     CLEAR     60  37  42 N3        29.99R

...NORTHERN KANSAS...

CITY           SKY/WX    TMP DP  RH WIND       PRES   REMARKS
GOODLAND       CLEAR     60  45  57 E8        30.10S
HILL CITY      CLEAR     63  42  46 NE5       30.07R
NORTON         CLEAR     61  39  44 CALM      30.06S
PHILLIPSBURG   CLEAR     64  41  42 N3        30.06R
SMITH CENTER   CLEAR     57  37  47 N7        30.06R
BELOIT         CLEAR     55  43  62 N3        30.03S
HAYS           CLEAR     64  43  45 CALM      30.06R
RUSSELL        CLEAR     62  41  46 NE5       30.04R
CONCORDIA      CLEAR     62  32  32 N5        30.03R
SALINA         CLEAR     64  41  42 CALM      30.03S
TOPEKA         CLEAR     60  39  45 NW3       30.00R



USA.gov is the U.S. government's official web portal to all federal, state and local government web resources and services.